Concord, NC

5:19 PM EDT on April 26, 2018 (GMT -0400)
Concord Regional

Weather History for KJQF - December, 2013

Change the Weather History Date:

Monday, December 2, 2013

  Actual Average (KCLT) Record (KCLT)
Temperature  
Mean Temperature 44 °F -  
Max Temperature 59 °F 55 °F 76 °F (1991)
Min Temperature 28 °F 35 °F 20 °F (1924)
Degree Days  
Heating Degree Days 22    
Moisture  
Dew Point 34 °F    
Average Humidity 79    
Maximum Humidity 100    
Minimum Humidity 39    
Precipitation  
Precipitation 0.00 in - - ()
Sea Level Pressure  
Sea Level Pressure 29.95 in    
Wind  
Wind Speed 0 mph (NNW)    
Max Wind Speed 5 mph    
Max Gust Speed -    
Visibility 8 miles    
Events      
Averages and records for this station are not official NWS values.
T = Trace of Precipitation, MM = Missing Value Source: NWS Daily Summary

Daily Weather History Graph

Daily Weather History Graph

Search for Another Location

Airport or City:

Astronomy

Dec. 02, 2013 Rise Set
Actual Time 7:14 AM EST 5:10 PM EST
Civil Twilight 6:46 AM EST 5:38 PM EST
Nautical Twilight 6:15 AM EST 6:09 PM EST
Astronomical Twilight 5:44 AM EST 6:40 PM EST
Moon 6:39 AM EST (12/2) 5:10 PM EST (12/2)
Length of Visible Light 10h 51m
Length of Day
9h 55m
Waning Crescent, 0% of the Moon is Illuminated
Dec 2
Waning Crescent
Dec 2
New
Dec 9
First Quarter
Dec 17
Full
Dec 25
Last Quarter

Hourly Weather History & Observations

Time (EST) Temp. Dew Point Humidity Pressure Visibility Wind Dir Wind Speed Gust Speed Precip Events Conditions
12:15 AM 32.0 °F 32.0 °F 100% 30.06 in 5.0 mi Calm Calm - N/A   Clear
12:35 AM 32.0 °F 32.0 °F 100% 30.05 in 7.0 mi Calm Calm - N/A   Scattered Clouds
12:55 AM 32.0 °F 32.0 °F 100% 30.03 in 7.0 mi Calm Calm - N/A   Scattered Clouds
1:15 AM 32.0 °F 32.0 °F 100% 30.02 in 7.0 mi Calm Calm - N/A   Clear
1:35 AM 32.0 °F 32.0 °F 100% 30.02 in 5.0 mi Calm Calm - N/A   Clear
1:55 AM 32.0 °F 32.0 °F 100% 30.01 in 7.0 mi Calm Calm - N/A   Clear
2:15 AM 32.0 °F 32.0 °F 100% 30.01 in 7.0 mi Calm Calm - N/A   Clear
2:35 AM 32.0 °F 30.2 °F 93% 30.01 in 7.0 mi Calm Calm - N/A   Clear
2:55 AM 32.0 °F 30.2 °F 93% 30.00 in 5.0 mi Calm Calm - N/A   Clear
3:15 AM 32.0 °F 30.2 °F 93% 30.00 in 10.0 mi Calm Calm - N/A   Clear
3:35 AM 30.2 °F 30.2 °F 100% 29.99 in 5.0 mi Calm Calm - N/A   Clear
3:55 AM 32.0 °F 30.2 °F 93% 29.99 in 7.0 mi Calm Calm - N/A   Clear
4:15 AM 30.2 °F 30.2 °F 100% 29.98 in 4.0 mi Calm Calm - N/A   Clear
4:35 AM 30.2 °F 28.4 °F 93% 29.98 in 7.0 mi Calm Calm - N/A   Clear
4:55 AM 30.2 °F 28.4 °F 93% 29.98 in 5.0 mi Calm Calm - N/A   Clear
5:15 AM 30.2 °F 30.2 °F 100% 29.97 in 5.0 mi Calm Calm - N/A   Clear
5:35 AM 28.4 °F 28.4 °F 100% 29.97 in 5.0 mi Calm Calm - N/A   Clear
5:55 AM 30.2 °F 28.4 °F 93% 29.97 in 7.0 mi Calm Calm - N/A   Clear
6:15 AM 30.2 °F 28.4 °F 93% 29.97 in 10.0 mi Calm Calm - N/A   Clear
6:35 AM 30.2 °F 28.4 °F 93% 29.97 in 7.0 mi Calm Calm - N/A   Clear
6:55 AM 28.4 °F 26.6 °F 93% 29.97 in 10.0 mi Calm Calm - N/A   Clear
7:55 AM - - N/A% 29.96 in 7.0 mi Calm Calm - N/A   Clear
8:55 AM 35.6 °F 33.8 °F 93% 29.97 in 10.0 mi Calm Calm - N/A   Clear
10:52 AM 48.2 °F 33.8 °F 58% 29.97 in 10.0 mi Calm Calm - N/A   Clear
11:51 AM 55.4 °F 35.6 °F 47% 29.94 in 10.0 mi NNW 4.6 mph - N/A   Scattered Clouds
12:55 PM 55.4 °F 35.6 °F 47% 29.92 in 10.0 mi Calm Calm - N/A   Overcast
1:53 PM 57.2 °F 35.6 °F 44% 29.89 in 10.0 mi Calm Calm - N/A   Scattered Clouds
2:51 PM 59.0 °F 33.8 °F 39% 29.86 in 10.0 mi Calm Calm - N/A   Clear
3:52 PM 59.0 °F 33.8 °F 39% 29.87 in 10.0 mi Calm Calm - N/A   Clear
4:51 PM 51.8 °F 37.4 °F 58% 29.87 in 10.0 mi Calm Calm - N/A   Clear
5:54 PM 46.4 °F 35.6 °F 66% 29.88 in 10.0 mi Calm Calm - N/A   Scattered Clouds
6:54 PM 48.2 °F 35.6 °F 62% 29.88 in 10.0 mi Calm Calm - N/A   Overcast
7:58 PM 48.2 °F 37.4 °F 66% 29.90 in 10.0 mi Calm Calm - N/A   Overcast
8:15 PM 46.4 °F 37.4 °F 71% 29.90 in 10.0 mi Calm Calm - N/A   Overcast
8:35 PM 46.4 °F 37.4 °F 71% 29.90 in 10.0 mi Calm Calm - N/A   Overcast
8:55 PM 46.4 °F 37.4 °F 71% 29.90 in 10.0 mi Calm Calm - N/A   Overcast
8:56 PM 48.2 °F 37.4 °F 66% 29.90 in 10.0 mi Calm Calm - N/A   Overcast
9:15 PM 46.4 °F 37.4 °F 71% 29.90 in 10.0 mi Calm Calm - N/A   Overcast
9:35 PM 44.6 °F 37.4 °F 76% 29.90 in 10.0 mi Calm Calm - N/A   Mostly Cloudy
9:55 PM 46.4 °F 37.4 °F 71% 29.91 in 10.0 mi Calm Calm - N/A   Overcast
9:58 PM 46.4 °F 37.4 °F 71% 29.91 in 10.0 mi Calm Calm - N/A   Overcast
10:15 PM 46.4 °F 37.4 °F 71% 29.91 in 10.0 mi Calm Calm - N/A   Overcast
10:35 PM 46.4 °F 37.4 °F 71% 29.91 in 10.0 mi Calm Calm - N/A   Overcast
10:50 PM 46.4 °F 37.4 °F 71% 29.91 in 10.0 mi Calm Calm - N/A   Overcast
10:55 PM 46.4 °F 37.4 °F 71% 29.91 in 10.0 mi Calm Calm - N/A   Overcast
11:15 PM 44.6 °F 37.4 °F 76% 29.92 in 10.0 mi Calm Calm - N/A   Overcast
11:35 PM 44.6 °F 37.4 °F 76% 29.92 in 10.0 mi Calm Calm - N/A   Overcast
11:55 PM 44.6 °F 37.4 °F 76% 29.92 in 10.0 mi Calm Calm - N/A   Overcast